星链-35037 (STARLINK-35037)

导读

STARLINK-35037是美国SpaceX星链星座的一员,于2025年9月3日发射入轨。星链项目旨在构建全球卫星互联网通信系统,为全球偏远地区、海洋等缺乏地面网络覆盖区域提供高速宽带服务。该卫星延续星链标准设计,依托星座组网,助力提升全球网络覆盖密度与服务稳定性,是美国低轨卫星互联网布局的组成部分。

基本信息
目录编号:
65483
目录名称:
STARLINK-35037
国际标识:
2025-195AB
轨道中心:
EARTH
卫星名称:
星链-35037
卫星全名:
星链-35037 (STARLINK-35037)
卫星状态:
在轨 (已飞行373 天)
发射日期:
2025-09-03 UTC
国别 :
美国 (US)
星等 :
--
该卫星已列入 空间交会检测服务 Space Conjunction Data Service (SCDS) ,当前飞行风险评估等级: 无高风险
轨道信息
数据来源 国际轨道数据
星历时间: 2026-09-11T22:25:18+0800
6小时前
查看轨道信息
半长轴: 6840.71km
偏心率: 0.0001233
轨道倾角: 53.158°
近地点辐角 93.722°
升交点赤经 111.345°
平近点角 266.392°
近地点: 461.729km
远地点: 463.417km
周期: 93.845分钟
每日圈数: 15.344441
详细信息
固有亮度:
5
最大亮度:
2.5
卫星平台:
Starlink V1.0
覆盖范围:
全球
运营商:
太空探索技术公司
运营商所在国:
美国
制造商(研发单位):
太空探索技术公司
制造商所在国:
美国
使用方式:
暂无
卫星简介
Starlink 计划是 SpaceX 推出的全球卫星互联网项目,通过发射低轨道卫星,为全球尤其是偏远地区提供高速、低延迟的互联网服务。自 2019 年起,Starlink 已部署数千颗卫星,旨在缩小全球数字鸿沟,推动互联网普及。该项目还为军事、航空等行业提供通信支持,带来广泛经济效益。
2D轨道图
3D轨道图
轨道高度分析图
轨道倾角分析图
轨道综合分析图
查看轨道综合分析图
交会数据列表
事件ID 空间交会对象 最接近时刻(TCA) 交会距离 交会风险概率(CRP) 交会风险指数(CRI) 操作
CDM_260914-001505-248606-548321
2026-09-14T
00:15:59+0000
0.668 km
远距离
8.646049E-5 中风险 0.74
CDM_260913-035006-028206-548321
2026-09-13T
03:50:55+0000
0.826 km
远距离
4.440589E-5 中风险 0.68
CDM_260913-011806-548306-575421
2026-09-13T
01:18:27+0000
0.839 km
远距离
3.065448E-5 中风险 0.65
CDM_260914-024106-548306-611121
2026-09-14T
02:41:37+0000
0.925 km
远距离
3.032577E-5 中风险 0.65
CDM_260913-171806-172006-548321
2026-09-13T
17:18:11+0000
1.087 km
极远距离
1.747675E-5 中风险 0.6
CDM_260913-193405-804106-548321
2026-09-13T
19:34:13+0000
1.136 km
极远距离
1.522602E-5 中风险 0.59
CDM_260912-125906-028206-548322
2026-09-12T
12:59:55+0000
1.233 km
极远距离
1.126084E-5 中风险 0.56
CDM_260913-044305-804106-548321
2026-09-13T
04:43:14+0000
1.268 km
极远距离
1.03876E-5 中风险 0.55
CDM_260913-123205-248606-548321
2026-09-13T
12:32:35+0000
1.275 km
极远距离
1.019345E-5 中风险 0.55
CDM_260914-023506-033406-548321
2026-09-14T
02:35:49+0000
1.391 km
极远距离
7.561041E-6 低风险 0.53
与全量物体交会距离演化趋势
与全量物体交会风险概率演化趋势